Time,TemperatureF,DewpointF,PressureIn,WindDirection,WindDirectionDegrees,WindSpeedMPH,WindSpeedGustMPH,Humidity,HourlyPrecipIn,Conditions,Clouds,dailyrainin,SolarRadiationWatts/m^2,SoftwareType,DateUTC
2013-11-15 00:01:00,73.2,62.4,30.13,ENE,59,7.0,15.0,69,0.00,,,0.00,0.0,meteohub,2013-11-15 05:01:00,
2013-11-15 00:02:00,73.2,62.4,30.13,East,81,14.0,15.0,69,0.00,,,0.00,0.0,meteohub,2013-11-15 05:02:00,
2013-11-15 00:09:00,73.2,62.4,30.13,ESE,104,10.0,14.0,69,0.00,,,0.00,0.0,meteohub,2013-11-15 05:09:00,
2013-11-15 00:14:00,73.6,62.8,30.13,East,96,10.0,17.0,69,0.00,,,0.00,0.0,meteohub,2013-11-15 05:14:00,
2013-11-15 00:19:00,73.8,62.6,30.13,East,83,2.0,17.0,68,0.00,,,0.00,0.0,meteohub,2013-11-15 05:19:00,
2013-11-15 00:24:00,73.8,62.6,30.13,ENE,77,8.0,18.0,68,0.00,,,0.00,0.0,meteohub,2013-11-15 05:24:00,
2013-11-15 00:29:00,73.8,62.6,30.12,ENE,68,11.0,18.0,68,0.00,,,0.00,0.0,meteohub,2013-11-15 05:29:00,
2013-11-15 00:34:00,73.8,62.6,30.12,ENE,78,11.0,18.0,68,0.00,,,0.00,0.0,meteohub,2013-11-15 05:34:00,
2013-11-15 00:39:00,73.8,62.6,30.12,East,91,7.0,17.0,68,0.00,,,0.00,0.0,meteohub,2013-11-15 05:39:00,
2013-11-15 00:44:00,73.8,62.6,30.12,East,99,9.0,17.0,68,0.00,,,0.00,0.0,meteohub,2013-11-15 05:44:00,
2013-11-15 00:49:00,73.8,62.6,30.12,ESE,117,11.0,17.0,68,0.00,,,0.00,0.0,meteohub,2013-11-15 05:49:00,
2013-11-15 00:54:00,73.6,62.4,30.12,ENE,74,12.0,18.0,68,0.00,,,0.00,0.0,meteohub,2013-11-15 05:54:00,
2013-11-15 00:59:00,73.6,62.4,30.11,East,79,11.0,18.0,68,0.00,,,0.00,0.0,meteohub,2013-11-15 05:59:00,
2013-11-15 01:04:00,73.6,62.4,30.11,East,89,5.0,18.0,68,0.00,,,0.00,0.0,meteohub,2013-11-15 06:04:00,
2013-11-15 01:09:00,73.6,62.8,30.11,ENE,74,7.0,16.0,69,0.00,,,0.00,0.0,meteohub,2013-11-15 06:09:00,
2013-11-15 01:14:00,73.6,62.4,30.11,ESE,103,7.0,16.0,68,0.00,,,0.00,0.0,meteohub,2013-11-15 06:14:00,
2013-11-15 01:19:00,73.6,62.4,30.11,East,87,6.0,16.0,68,0.00,,,0.00,0.0,meteohub,2013-11-15 06:19:00,
2013-11-15 01:24:00,73.6,62.8,30.11,ESE,105,5.0,16.0,69,0.00,,,0.00,0.0,meteohub,2013-11-15 06:24:00,
2013-11-15 01:29:00,73.6,62.4,30.11,ESE,109,7.0,14.0,68,0.00,,,0.00,0.0,meteohub,2013-11-15 06:29:00,
2013-11-15 01:34:00,73.6,62.4,30.12,East,95,7.0,13.0,68,0.00,,,0.00,0.0,meteohub,2013-11-15 06:34:00,
2013-11-15 01:39:00,73.6,62.4,30.11,NE,51,4.0,13.0,68,0.00,,,0.00,0.0,meteohub,2013-11-15 06:39:00,
2013-11-15 01:44:00,73.6,62.8,30.10,East,84,13.0,13.0,69,0.00,,,0.00,0.0,meteohub,2013-11-15 06:44:00,
2013-11-15 01:49:00,73.6,62.8,30.10,ENE,69,8.0,13.0,69,0.00,,,0.00,0.0,meteohub,2013-11-15 06:49:00,
2013-11-15 01:54:00,73.6,63.1,30.10,East,100,9.0,15.0,70,0.00,,,0.00,0.0,meteohub,2013-11-15 06:54:00,
2013-11-15 01:59:00,73.4,63.0,30.10,East,95,8.0,15.0,70,0.00,,,0.00,0.0,meteohub,2013-11-15 06:59:00,
2013-11-15 02:04:00,73.4,63.0,30.10,East,92,5.0,15.0,70,0.00,,,0.00,0.0,meteohub,2013-11-15 07:04:00,
2013-11-15 02:09:00,73.4,63.5,30.10,ENE,78,7.0,13.0,71,0.00,,,0.00,0.0,meteohub,2013-11-15 07:09:00,
2013-11-15 02:14:00,73.2,63.3,30.10,East,90,6.0,13.0,71,0.00,,,0.00,0.0,meteohub,2013-11-15 07:14:00,
2013-11-15 02:19:00,73.2,63.3,30.09,ENE,74,4.0,13.0,71,0.00,,,0.00,0.0,meteohub,2013-11-15 07:19:00,
2013-11-15 02:24:00,73.4,63.5,30.10,East,94,11.0,12.0,71,0.00,,,0.00,0.0,meteohub,2013-11-15 07:24:00,
2013-11-15 02:29:00,73.6,63.7,30.10,ENE,73,5.0,12.0,71,0.00,,,0.00,0.0,meteohub,2013-11-15 07:29:00,
2013-11-15 02:34:00,73.6,63.7,30.09,East,88,5.0,13.0,71,0.00,,,0.00,0.0,meteohub,2013-11-15 07:34:00,
2013-11-15 02:39:00,73.6,63.7,30.09,ESE,109,8.0,13.0,71,0.00,,,0.00,0.0,meteohub,2013-11-15 07:39:00,
2013-11-15 02:44:00,73.8,63.7,30.09,East,90,7.0,12.0,71,0.00,,,0.00,0.0,meteohub,2013-11-15 07:44:00,
2013-11-15 02:49:00,73.8,63.7,30.09,East,81,6.0,14.0,71,0.00,,,0.00,0.0,meteohub,2013-11-15 07:49:00,
2013-11-15 02:54:00,73.8,63.7,30.09,ENE,76,9.0,14.0,71,0.00,,,0.00,0.0,meteohub,2013-11-15 07:54:00,
2013-11-15 02:59:00,73.6,64.0,30.08,East,97,7.0,14.0,72,0.00,,,0.00,0.0,meteohub,2013-11-15 07:59:00,
2013-11-15 03:04:00,73.8,64.2,30.08,East,90,6.0,10.0,72,0.00,,,0.00,0.0,meteohub,2013-11-15 08:04:00,
2013-11-15 03:09:00,73.8,64.2,30.08,East,87,6.0,11.0,72,0.00,,,0.00,0.0,meteohub,2013-11-15 08:09:00,
2013-11-15 03:14:00,73.8,64.2,30.08,East,89,6.0,11.0,72,0.00,,,0.00,0.0,meteohub,2013-11-15 08:14:00,
2013-11-15 03:19:00,73.8,64.6,30.08,East,97,8.0,11.0,73,0.00,,,0.00,0.0,meteohub,2013-11-15 08:19:00,
2013-11-15 03:24:00,73.8,64.6,30.08,East,99,9.0,10.0,73,0.00,,,0.00,0.0,meteohub,2013-11-15 08:24:00,
2013-11-15 03:29:00,73.8,64.6,30.08,East,93,5.0,15.0,73,0.00,,,0.00,0.0,meteohub,2013-11-15 08:29:00,
2013-11-15 03:35:00,73.8,64.6,30.08,East,94,2.0,15.0,73,0.00,,,0.00,0.0,meteohub,2013-11-15 08:35:00,
2013-11-15 03:40:00,73.8,64.6,30.08,East,84,7.0,13.0,73,0.00,,,0.00,0.0,meteohub,2013-11-15 08:40:00,
2013-11-15 03:45:00,73.6,64.4,30.08,SE,129,3.0,12.0,73,0.00,,,0.00,0.0,meteohub,2013-11-15 08:45:00,
2013-11-15 03:50:00,73.6,64.8,30.09,ENE,69,2.0,12.0,74,0.00,,,0.00,0.0,meteohub,2013-11-15 08:50:00,
2013-11-15 03:55:00,73.6,64.8,30.08,East,101,7.0,10.0,74,0.00,,,0.00,0.0,meteohub,2013-11-15 08:55:00,
2013-11-15 04:00:00,73.6,64.8,30.08,ENE,65,7.0,9.0,74,0.00,,,0.00,0.0,meteohub,2013-11-15 09:00:00,
2013-11-15 04:05:00,73.6,64.8,30.08,East,101,3.0,14.0,74,0.00,,,0.00,0.0,meteohub,2013-11-15 09:05:00,
2013-11-15 04:10:00,73.6,64.8,30.07,East,99,5.0,14.0,74,0.00,,,0.00,0.0,meteohub,2013-11-15 09:10:00,
2013-11-15 04:15:00,73.6,64.8,30.08,ESE,119,4.0,14.0,74,0.00,,,0.00,0.0,meteohub,2013-11-15 09:15:00,
2013-11-15 04:20:00,73.6,64.8,30.08,East,84,8.0,13.0,74,0.00,,,0.00,0.0,meteohub,2013-11-15 09:20:00,
2013-11-15 04:25:00,73.8,64.9,30.08,East,92,5.0,13.0,74,0.00,,,0.00,0.0,meteohub,2013-11-15 09:25:00,
2013-11-15 04:30:00,73.8,64.9,30.08,ENE,67,4.0,15.0,74,0.00,,,0.00,0.0,meteohub,2013-11-15 09:30:00,
2013-11-15 04:35:00,73.8,64.9,30.08,East,80,3.0,15.0,74,0.00,,,0.00,0.0,meteohub,2013-11-15 09:35:00,
2013-11-15 04:40:00,73.6,64.8,30.08,ENE,73,7.0,13.0,74,0.00,,,0.00,0.0,meteohub,2013-11-15 09:40:00,
2013-11-15 04:45:00,73.6,64.8,30.08,NE,42,9.0,11.0,74,0.00,,,0.00,0.0,meteohub,2013-11-15 09:45:00,
2013-11-15 04:50:00,73.6,64.8,30.08,NE,53,4.0,13.0,74,0.00,,,0.00,0.0,meteohub,2013-11-15 09:50:00,
2013-11-15 04:55:00,73.4,64.6,30.08,East,87,5.0,13.0,74,0.00,,,0.00,0.0,meteohub,2013-11-15 09:55:00,
2013-11-15 05:00:00,73.6,65.1,30.08,East,97,6.0,13.0,75,0.00,,,0.00,0.0,meteohub,2013-11-15 10:00:00,
2013-11-15 05:05:00,73.8,65.3,30.08,ESE,111,8.0,15.0,75,0.00,,,0.00,0.0,meteohub,2013-11-15 10:05:00,
2013-11-15 05:10:00,73.9,65.5,30.09,ENE,69,5.0,17.0,75,0.00,,,0.00,0.0,meteohub,2013-11-15 10:10:00,
2013-11-15 05:15:00,73.9,65.1,30.09,East,88,5.0,17.0,74,0.00,,,0.00,0.0,meteohub,2013-11-15 10:15:00,
2013-11-15 05:20:00,73.8,64.9,30.09,ENE,76,7.0,17.0,74,0.00,,,0.00,0.0,meteohub,2013-11-15 10:20:00,
2013-11-15 05:25:00,73.8,65.3,30.09,ENE,69,5.0,11.0,75,0.00,,,0.00,0.0,meteohub,2013-11-15 10:25:00,
2013-11-15 05:30:00,73.6,65.1,30.09,East,87,6.0,11.0,75,0.00,,,0.00,0.0,meteohub,2013-11-15 10:30:00,
2013-11-15 05:35:00,73.6,65.1,30.08,East,87,9.0,11.0,75,0.00,,,0.00,0.0,meteohub,2013-11-15 10:35:00,
2013-11-15 05:40:00,73.6,65.1,30.08,ENE,77,5.0,11.0,75,0.00,,,0.00,0.0,meteohub,2013-11-15 10:40:00,
2013-11-15 05:45:00,73.4,64.9,30.08,East,79,9.0,13.0,75,0.00,,,0.00,0.0,meteohub,2013-11-15 10:45:00,
2013-11-15 05:50:00,73.6,65.1,30.08,East,84,9.0,13.0,75,0.00,,,0.00,0.0,meteohub,2013-11-15 10:50:00,
2013-11-15 05:55:00,73.8,65.3,30.09,ESE,102,2.0,13.0,75,0.00,,,0.00,0.0,meteohub,2013-11-15 10:55:00,
2013-11-15 06:00:00,73.8,65.3,30.09,East,94,8.0,12.0,75,0.00,,,0.00,0.0,meteohub,2013-11-15 11:00:00,
2013-11-15 06:05:00,73.8,64.9,30.09,East,100,3.0,13.0,74,0.00,,,0.00,0.0,meteohub,2013-11-15 11:05:00,
2013-11-15 06:10:00,73.8,64.6,30.09,East,84,9.0,13.0,73,0.00,,,0.00,0.0,meteohub,2013-11-15 11:10:00,
2013-11-15 06:15:00,73.9,64.8,30.08,ENE,69,7.0,13.0,73,0.00,,,0.00,0.0,meteohub,2013-11-15 11:15:00,
2013-11-15 06:20:00,73.9,64.8,30.09,East,100,5.0,13.0,73,0.00,,,0.00,0.0,meteohub,2013-11-15 11:20:00,
2013-11-15 06:25:00,73.9,64.8,30.09,ENE,78,7.0,13.0,73,0.00,,,0.00,0.0,meteohub,2013-11-15 11:25:00,
2013-11-15 06:30:00,74.1,64.9,30.09,East,100,6.0,17.0,73,0.00,,,0.00,0.0,meteohub,2013-11-15 11:30:00,
2013-11-15 06:35:00,74.1,64.9,30.09,East,82,7.0,17.0,73,0.00,,,0.00,0.0,meteohub,2013-11-15 11:35:00,
2013-11-15 06:40:00,74.3,65.1,30.10,East,91,9.0,17.0,73,0.00,,,0.00,0.0,meteohub,2013-11-15 11:40:00,
2013-11-15 06:45:00,74.3,65.1,30.10,East,90,5.0,16.0,73,0.00,,,0.00,5.0,meteohub,2013-11-15 11:45:00,
2013-11-15 06:51:00,74.3,65.5,30.10,ENE,72,4.0,14.0,74,0.00,,,0.00,11.0,meteohub,2013-11-15 11:51:00,
2013-11-15 06:56:00,74.3,65.5,30.10,East,96,8.0,14.0,74,0.00,,,0.00,18.0,meteohub,2013-11-15 11:56:00,
2013-11-15 07:01:00,74.5,65.7,30.10,ESE,103,4.0,13.0,74,0.00,,,0.00,25.0,meteohub,2013-11-15 12:01:00,
2013-11-15 07:06:00,74.5,65.7,30.10,ENE,57,5.0,14.0,74,0.00,,,0.00,33.0,meteohub,2013-11-15 12:06:00,
2013-11-15 07:11:00,74.7,65.8,30.10,ESE,106,11.0,15.0,74,0.00,,,0.00,37.0,meteohub,2013-11-15 12:11:00,
2013-11-15 07:16:00,74.8,66.0,30.10,ENE,64,9.0,15.0,74,0.00,,,0.00,44.0,meteohub,2013-11-15 12:16:00,
2013-11-15 07:21:00,75.0,66.2,30.10,East,90,8.0,17.0,74,0.00,,,0.00,56.0,meteohub,2013-11-15 12:21:00,
2013-11-15 07:26:00,75.2,66.4,30.10,East,84,6.0,17.0,74,0.00,,,0.00,84.0,meteohub,2013-11-15 12:26:00,
2013-11-15 07:31:00,75.4,66.6,30.10,NE,56,7.0,17.0,74,0.00,,,0.00,86.0,meteohub,2013-11-15 12:31:00,
2013-11-15 07:36:00,75.6,66.7,30.10,East,92,7.0,17.0,74,0.00,,,0.00,97.0,meteohub,2013-11-15 12:36:00,
2013-11-15 07:41:00,75.6,66.7,30.10,ESE,103,4.0,13.0,74,0.00,,,0.00,91.0,meteohub,2013-11-15 12:41:00,
2013-11-15 07:46:00,75.7,66.9,30.11,East,89,6.0,13.0,74,0.00,,,0.00,88.0,meteohub,2013-11-15 12:46:00,
2013-11-15 07:51:00,75.7,66.9,30.11,ESE,117,8.0,13.0,74,0.00,,,0.00,93.0,meteohub,2013-11-15 12:51:00,
2013-11-15 07:56:00,75.7,66.9,30.11,East,100,3.0,14.0,74,0.00,,,0.00,84.0,meteohub,2013-11-15 12:56:00,
2013-11-15 08:01:00,75.9,67.1,30.11,ESE,118,14.0,15.0,74,0.00,,,0.00,90.0,meteohub,2013-11-15 13:01:00,
2013-11-15 08:06:00,75.9,67.1,30.11,East,88,10.0,15.0,74,0.00,,,0.00,88.0,meteohub,2013-11-15 13:06:00,
2013-11-15 08:11:00,75.9,67.1,30.12,ESE,106,10.0,15.0,74,0.00,,,0.00,97.0,meteohub,2013-11-15 13:11:00,
2013-11-15 08:16:00,76.1,67.3,30.12,East,98,11.0,15.0,74,0.00,,,0.00,132.0,meteohub,2013-11-15 13:16:00,
2013-11-15 08:21:00,76.3,67.5,30.12,East,87,8.0,14.0,74,0.00,,,0.00,149.0,meteohub,2013-11-15 13:21:00,
2013-11-15 08:26:00,76.5,67.6,30.12,East,86,6.0,14.0,74,0.00,,,0.00,141.0,meteohub,2013-11-15 13:26:00,
2013-11-15 08:31:00,76.6,67.6,30.12,ENE,64,5.0,14.0,74,0.00,,,0.00,200.0,meteohub,2013-11-15 13:31:00,
2013-11-15 08:36:00,76.6,67.6,30.12,ENE,69,11.0,14.0,74,0.00,,,0.00,207.0,meteohub,2013-11-15 13:36:00,
2013-11-15 08:41:00,77.0,68.0,30.12,East,79,10.0,14.0,74,0.00,,,0.00,343.0,meteohub,2013-11-15 13:41:00,
2013-11-15 08:46:00,77.4,68.0,30.12,East,101,7.0,18.0,73,0.00,,,0.00,251.0,meteohub,2013-11-15 13:46:00,
2013-11-15 08:51:00,77.4,68.0,30.12,East,84,9.0,18.0,73,0.00,,,0.00,195.0,meteohub,2013-11-15 13:51:00,
2013-11-15 08:56:00,77.4,68.0,30.12,ENE,72,9.0,18.0,73,0.00,,,0.00,179.0,meteohub,2013-11-15 13:56:00,
2013-11-15 09:01:00,77.2,67.8,30.12,ENE,78,9.0,19.0,73,0.00,,,0.00,206.0,meteohub,2013-11-15 14:01:00,
2013-11-15 09:06:00,77.2,68.2,30.12,ESE,107,7.0,19.0,74,0.00,,,0.00,218.0,meteohub,2013-11-15 14:06:00,
2013-11-15 09:11:00,77.4,68.0,30.13,ENE,76,15.0,19.0,73,0.00,,,0.00,195.0,meteohub,2013-11-15 14:11:00,
2013-11-15 09:16:00,77.4,68.0,30.13,NE,55,8.0,16.0,73,0.00,,,0.00,160.0,meteohub,2013-11-15 14:16:00,
2013-11-15 09:21:00,77.2,68.2,30.13,East,90,5.0,16.0,74,0.00,,,0.00,118.0,meteohub,2013-11-15 14:21:00,
2013-11-15 09:26:00,77.2,68.2,30.13,ENE,74,7.0,16.0,74,0.00,,,0.00,102.0,meteohub,2013-11-15 14:26:00,
2013-11-15 09:31:00,77.0,68.5,30.13,East,79,11.0,14.0,75,0.00,,,0.00,229.0,meteohub,2013-11-15 14:31:00,
2013-11-15 09:36:00,77.4,68.4,30.13,East,86,8.0,14.0,74,0.00,,,0.00,202.0,meteohub,2013-11-15 14:36:00,
2013-11-15 09:41:00,77.4,68.4,30.13,East,101,8.0,17.0,74,0.00,,,0.00,392.0,meteohub,2013-11-15 14:41:00,
2013-11-15 09:46:00,77.7,68.4,30.13,East,79,6.0,17.0,73,0.00,,,0.00,432.0,meteohub,2013-11-15 14:46:00,
2013-11-15 09:52:00,78.4,69.1,-100.00,East,98,14.0,17.0,73,0.00,,,0.00,510.0,meteohub,2013-11-15 14:52:00,
2013-11-15 09:57:00,78.6,68.9,30.13,East,88,13.0,17.0,72,0.00,,,0.00,568.0,meteohub,2013-11-15 14:57:00,
2013-11-15 10:02:00,79.0,69.3,30.13,ENE,74,12.0,20.0,72,0.00,,,0.00,519.0,meteohub,2013-11-15 15:02:00,
2013-11-15 10:07:00,78.8,69.1,30.14,ESE,107,5.0,20.0,72,0.00,,,0.00,241.0,meteohub,2013-11-15 15:07:00,
2013-11-15 10:12:00,79.0,69.3,30.13,East,86,13.0,17.0,72,0.00,,,0.00,234.0,meteohub,2013-11-15 15:12:00,
2013-11-15 10:17:00,79.0,68.7,30.13,ESE,111,13.0,18.0,71,0.00,,,0.00,153.0,meteohub,2013-11-15 15:17:00,
2013-11-15 10:22:00,78.4,68.7,30.13,East,92,8.0,18.0,72,0.00,,,0.00,258.0,meteohub,2013-11-15 15:22:00,
2013-11-15 10:28:00,78.4,68.7,30.13,ESE,105,9.0,18.0,72,0.00,,,0.00,244.0,meteohub,2013-11-15 15:28:00,
2013-11-15 10:33:00,78.6,68.9,30.13,East,88,9.0,18.0,72,0.00,,,0.00,230.0,meteohub,2013-11-15 15:33:00,
2013-11-15 10:38:00,79.0,68.7,30.13,ENE,74,14.0,17.0,71,0.00,,,0.00,680.0,meteohub,2013-11-15 15:38:00,
2013-11-15 10:43:00,79.9,69.3,30.13,East,101,6.0,16.0,70,0.00,,,0.00,751.0,meteohub,2013-11-15 15:43:00,
2013-11-15 10:48:00,80.2,69.6,30.13,East,86,11.0,16.0,70,0.00,,,0.00,751.0,meteohub,2013-11-15 15:48:00,
2013-11-15 10:53:00,80.6,69.1,30.12,ENE,77,10.0,18.0,68,0.00,,,0.00,657.0,meteohub,2013-11-15 15:53:00,
2013-11-15 10:58:00,80.6,69.1,30.12,ENE,74,11.0,18.0,68,0.00,,,0.00,640.0,meteohub,2013-11-15 15:58:00,
2013-11-15 11:03:00,80.2,69.1,30.12,East,83,17.0,22.0,69,0.00,,,0.00,659.0,meteohub,2013-11-15 16:03:00,
2013-11-15 11:08:00,79.5,68.9,30.12,East,95,14.0,22.0,70,0.00,,,0.00,694.0,meteohub,2013-11-15 16:08:00,
2013-11-15 11:13:00,80.1,69.8,30.11,East,82,10.0,22.0,71,0.00,,,0.00,722.0,meteohub,2013-11-15 16:13:00,
2013-11-15 11:18:00,79.9,69.6,30.11,East,95,8.0,21.0,71,0.00,,,0.00,686.0,meteohub,2013-11-15 16:18:00,
2013-11-15 11:23:00,79.5,69.3,30.11,ENE,77,8.0,20.0,71,0.00,,,0.00,534.0,meteohub,2013-11-15 16:23:00,
2013-11-15 11:28:00,79.2,69.3,30.11,ENE,72,15.0,20.0,72,0.00,,,0.00,230.0,meteohub,2013-11-15 16:28:00,
2013-11-15 11:33:00,79.2,69.3,30.11,ENE,66,11.0,20.0,72,0.00,,,0.00,353.0,meteohub,2013-11-15 16:33:00,
2013-11-15 11:38:00,79.0,68.4,30.10,East,101,13.0,20.0,70,0.00,,,0.00,271.0,meteohub,2013-11-15 16:38:00,
2013-11-15 11:43:00,78.8,68.5,30.10,ESE,103,15.0,20.0,71,0.00,,,0.00,236.0,meteohub,2013-11-15 16:43:00,
2013-11-15 11:48:00,78.8,69.1,30.10,ENE,64,10.0,20.0,72,0.00,,,0.00,332.0,meteohub,2013-11-15 16:48:00,
2013-11-15 11:53:00,79.0,69.3,30.09,ESE,109,8.0,20.0,72,0.00,,,0.00,385.0,meteohub,2013-11-15 16:53:00,
2013-11-15 11:58:00,80.1,69.8,30.09,East,97,20.0,20.0,71,0.00,,,0.00,350.0,meteohub,2013-11-15 16:58:00,
2013-11-15 12:03:00,79.9,69.3,30.09,East,97,16.0,20.0,70,0.00,,,0.00,329.0,meteohub,2013-11-15 17:03:00,
2013-11-15 12:08:00,79.5,68.9,30.09,East,90,5.0,20.0,70,0.00,,,0.00,348.0,meteohub,2013-11-15 17:08:00,
2013-11-15 12:13:00,79.7,69.1,30.09,ENE,70,4.0,20.0,70,0.00,,,0.00,274.0,meteohub,2013-11-15 17:13:00,
2013-11-15 12:18:00,79.9,69.3,30.09,East,86,8.0,17.0,70,0.00,,,0.00,350.0,meteohub,2013-11-15 17:18:00,
2013-11-15 12:23:00,79.5,68.9,30.09,SE,125,8.0,17.0,70,0.00,,,0.00,294.0,meteohub,2013-11-15 17:23:00,
2013-11-15 12:28:00,79.5,69.3,30.09,East,82,10.0,17.0,71,0.00,,,0.00,186.0,meteohub,2013-11-15 17:28:00,
2013-11-15 12:33:00,79.3,68.7,30.09,East,101,14.0,17.0,70,0.00,,,0.00,318.0,meteohub,2013-11-15 17:33:00,
2013-11-15 12:38:00,79.0,68.4,30.09,ESE,117,11.0,18.0,70,0.00,,,0.00,234.0,meteohub,2013-11-15 17:38:00,
2013-11-15 12:43:00,78.6,68.4,30.09,East,99,13.0,18.0,71,0.00,,,0.00,234.0,meteohub,2013-11-15 17:43:00,
2013-11-15 12:48:00,78.8,68.5,30.08,East,92,15.0,20.0,71,0.00,,,0.00,211.0,meteohub,2013-11-15 17:48:00,
2013-11-15 12:53:00,78.6,68.4,30.07,ESE,116,7.0,20.0,71,0.00,,,0.00,241.0,meteohub,2013-11-15 17:53:00,
2013-11-15 12:59:00,78.8,68.5,30.06,ESE,117,14.0,18.0,71,0.00,,,0.00,234.0,meteohub,2013-11-15 17:59:00,
2013-11-15 13:04:00,79.0,69.3,30.06,East,94,9.0,18.0,72,0.00,,,0.00,311.0,meteohub,2013-11-15 18:04:00,
2013-11-15 13:09:00,79.0,68.7,30.06,East,96,11.0,18.0,71,0.00,,,0.00,230.0,meteohub,2013-11-15 18:09:00,
2013-11-15 13:14:00,78.8,68.5,30.06,East,80,10.0,20.0,71,0.00,,,0.00,250.0,meteohub,2013-11-15 18:14:00,
2013-11-15 13:19:00,79.2,68.5,30.06,East,95,11.0,20.0,70,0.00,,,0.00,225.0,meteohub,2013-11-15 18:19:00,
2013-11-15 13:24:00,79.2,68.9,30.05,East,92,14.0,20.0,71,0.00,,,0.00,313.0,meteohub,2013-11-15 18:24:00,
2013-11-15 13:29:00,79.3,68.7,30.05,ESE,103,13.0,17.0,70,0.00,,,0.00,232.0,meteohub,2013-11-15 18:29:00,
2013-11-15 13:34:00,79.0,68.7,30.05,ENE,75,9.0,17.0,71,0.00,,,0.00,165.0,meteohub,2013-11-15 18:34:00,
2013-11-15 13:39:00,78.8,68.5,30.05,East,96,5.0,19.0,71,0.00,,,0.00,213.0,meteohub,2013-11-15 18:39:00,
2013-11-15 13:44:00,79.0,68.7,30.05,East,93,7.0,19.0,71,0.00,,,0.00,178.0,meteohub,2013-11-15 18:44:00,
2013-11-15 13:49:00,79.0,68.7,30.05,East,90,7.0,19.0,71,0.00,,,0.00,200.0,meteohub,2013-11-15 18:49:00,
2013-11-15 13:54:00,79.2,68.9,30.05,East,90,11.0,17.0,71,0.00,,,0.00,420.0,meteohub,2013-11-15 18:54:00,
2013-11-15 13:59:00,79.9,68.7,30.05,ESE,121,10.0,17.0,69,0.00,,,0.00,461.0,meteohub,2013-11-15 18:59:00,
2013-11-15 14:04:00,80.1,68.5,30.04,East,87,13.0,17.0,68,0.00,,,0.00,406.0,meteohub,2013-11-15 19:04:00,
2013-11-15 14:09:00,80.2,67.8,30.04,East,91,10.0,16.0,66,0.00,,,0.00,297.0,meteohub,2013-11-15 19:09:00,
2013-11-15 14:14:00,80.1,67.6,30.04,NE,39,8.0,19.0,66,0.00,,,0.00,399.0,meteohub,2013-11-15 19:14:00,
2013-11-15 14:19:00,80.1,68.2,30.03,ESE,109,8.0,19.0,67,0.00,,,0.00,490.0,meteohub,2013-11-15 19:19:00,
2013-11-15 14:24:00,80.4,67.6,30.03,ESE,109,11.0,19.0,65,0.00,,,0.00,640.0,meteohub,2013-11-15 19:24:00,
2013-11-15 14:29:00,80.4,67.6,30.03,ESE,105,8.0,19.0,65,0.00,,,0.00,253.0,meteohub,2013-11-15 19:29:00,
2013-11-15 14:34:00,80.2,67.5,30.02,ENE,78,8.0,18.0,65,0.00,,,0.00,244.0,meteohub,2013-11-15 19:34:00,
2013-11-15 14:39:00,80.2,68.4,30.03,East,90,14.0,18.0,67,0.00,,,0.00,410.0,meteohub,2013-11-15 19:39:00,
2013-11-15 14:44:00,80.1,68.2,30.02,East,84,11.0,18.0,67,0.00,,,0.00,214.0,meteohub,2013-11-15 19:44:00,
2013-11-15 14:49:00,80.1,68.2,30.03,ESE,111,8.0,18.0,67,0.00,,,0.00,271.0,meteohub,2013-11-15 19:49:00,
2013-11-15 14:54:00,80.4,68.5,30.03,East,81,10.0,19.0,67,0.00,,,0.00,183.0,meteohub,2013-11-15 19:54:00,
2013-11-15 14:59:00,79.9,68.0,30.03,ENE,76,9.0,19.0,67,0.00,,,0.00,146.0,meteohub,2013-11-15 19:59:00,
2013-11-15 15:04:00,79.7,68.5,30.03,NE,53,8.0,16.0,69,0.00,,,0.00,107.0,meteohub,2013-11-15 20:04:00,
2013-11-15 15:09:00,79.3,69.1,30.03,ENE,74,13.0,16.0,71,0.00,,,0.00,90.0,meteohub,2013-11-15 20:09:00,
2013-11-15 15:14:00,79.0,68.7,30.03,ENE,61,5.0,16.0,71,0.00,,,0.00,54.0,meteohub,2013-11-15 20:14:00,
2013-11-15 15:19:00,78.6,68.4,30.03,ENE,69,11.0,16.0,71,0.00,,,0.00,51.0,meteohub,2013-11-15 20:19:00,
2013-11-15 15:24:00,78.4,68.7,30.03,ENE,63,7.0,16.0,72,0.00,,,0.00,56.0,meteohub,2013-11-15 20:24:00,
2013-11-15 15:30:00,78.4,68.7,30.03,ENE,66,11.0,17.0,72,0.00,,,0.00,67.0,meteohub,2013-11-15 20:30:00,
2013-11-15 15:35:00,78.3,68.5,30.03,ENE,67,9.0,17.0,72,0.00,,,0.00,74.0,meteohub,2013-11-15 20:35:00,
2013-11-15 15:40:00,78.3,68.5,30.03,East,83,9.0,18.0,72,0.00,,,0.00,69.0,meteohub,2013-11-15 20:40:00,
2013-11-15 15:45:00,78.3,68.0,30.03,ENE,73,5.0,18.0,71,0.00,,,0.00,90.0,meteohub,2013-11-15 20:45:00,
2013-11-15 15:50:00,78.3,68.0,30.03,ENE,76,7.0,18.0,71,0.00,,,0.00,79.0,meteohub,2013-11-15 20:50:00,
2013-11-15 15:55:00,78.4,68.7,30.03,East,90,15.0,15.0,72,0.00,,,0.00,86.0,meteohub,2013-11-15 20:55:00,
2013-11-15 16:00:00,78.4,68.7,30.03,ENE,65,10.0,14.0,72,0.00,,,0.00,79.0,meteohub,2013-11-15 21:00:00,
2013-11-15 16:05:00,78.4,68.7,30.03,NE,39,11.0,16.0,72,0.00,,,0.00,72.0,meteohub,2013-11-15 21:05:00,
2013-11-15 16:10:00,78.3,68.5,30.03,ENE,64,7.0,17.0,72,0.00,,,0.00,76.0,meteohub,2013-11-15 21:10:00,
2013-11-15 16:15:00,78.3,68.5,30.03,NNE,22,7.0,17.0,72,0.00,,,0.00,76.0,meteohub,2013-11-15 21:15:00,
2013-11-15 16:20:00,78.3,68.9,30.03,ENE,63,9.0,19.0,73,0.00,,,0.00,83.0,meteohub,2013-11-15 21:20:00,
2013-11-15 16:25:00,78.3,68.9,30.03,ENE,65,8.0,19.0,73,0.00,,,0.00,74.0,meteohub,2013-11-15 21:25:00,
2013-11-15 16:30:00,78.1,68.7,30.03,NE,51,7.0,19.0,73,0.00,,,0.00,67.0,meteohub,2013-11-15 21:30:00,
2013-11-15 16:35:00,78.1,68.7,30.03,East,86,10.0,14.0,73,0.00,,,0.00,60.0,meteohub,2013-11-15 21:35:00,
2013-11-15 16:40:00,77.9,68.5,30.03,ENE,68,2.0,14.0,73,0.00,,,0.00,56.0,meteohub,2013-11-15 21:40:00,
2013-11-15 16:45:00,77.7,68.4,30.03,East,82,10.0,14.0,73,0.00,,,0.00,53.0,meteohub,2013-11-15 21:45:00,
2013-11-15 16:50:00,77.7,68.7,30.03,ENE,66,11.0,14.0,74,0.00,,,0.00,39.0,meteohub,2013-11-15 21:50:00,
2013-11-15 16:55:00,77.7,68.7,30.03,East,88,6.0,14.0,74,0.00,,,0.00,30.0,meteohub,2013-11-15 21:55:00,
2013-11-15 17:00:00,77.5,68.5,30.03,East,95,7.0,15.0,74,0.00,,,0.00,21.0,meteohub,2013-11-15 22:00:00,
2013-11-15 17:05:00,77.5,68.5,30.03,East,82,5.0,15.0,74,0.00,,,0.00,16.0,meteohub,2013-11-15 22:05:00,
2013-11-15 17:10:00,77.5,68.5,30.03,ENE,78,4.0,14.0,74,0.00,,,0.00,11.0,meteohub,2013-11-15 22:10:00,
2013-11-15 17:15:00,77.5,68.5,30.03,NE,55,6.0,14.0,74,0.00,,,0.00,7.0,meteohub,2013-11-15 22:15:00,
2013-11-15 17:20:00,77.4,68.4,30.03,ENE,64,7.0,11.0,74,0.00,,,0.00,5.0,meteohub,2013-11-15 22:20:00,
2013-11-15 17:25:00,77.4,68.4,30.03,NE,56,7.0,12.0,74,0.00,,,0.00,0.0,meteohub,2013-11-15 22:25:00,
2013-11-15 17:30:00,77.4,68.9,30.03,ENE,71,13.0,13.0,75,0.00,,,0.00,0.0,meteohub,2013-11-15 22:30:00,
2013-11-15 17:35:00,77.4,68.4,30.03,East,99,7.0,16.0,74,0.00,,,0.00,0.0,meteohub,2013-11-15 22:35:00,
2013-11-15 17:40:00,77.4,68.4,30.03,ENE,76,7.0,16.0,74,0.00,,,0.00,0.0,meteohub,2013-11-15 22:40:00,
2013-11-15 17:45:00,77.4,68.4,30.03,ENE,60,8.0,16.0,74,0.00,,,0.00,0.0,meteohub,2013-11-15 22:45:00,
2013-11-15 17:50:00,77.4,68.4,30.03,East,88,5.0,12.0,74,0.00,,,0.00,0.0,meteohub,2013-11-15 22:50:00,
2013-11-15 17:55:00,77.4,68.4,30.03,NE,54,6.0,11.0,74,0.00,,,0.00,0.0,meteohub,2013-11-15 22:55:00,
2013-11-15 18:00:00,77.4,68.9,30.03,ENE,63,3.0,11.0,75,0.00,,,0.00,0.0,meteohub,2013-11-15 23:00:00,
2013-11-15 18:05:00,77.4,68.9,30.03,ENE,65,4.0,11.0,75,0.00,,,0.00,0.0,meteohub,2013-11-15 23:05:00,
2013-11-15 18:10:00,77.4,68.9,30.04,East,84,3.0,14.0,75,0.00,,,0.00,0.0,meteohub,2013-11-15 23:10:00,
2013-11-15 18:15:00,77.4,68.9,30.03,ENE,59,8.0,14.0,75,0.00,,,0.00,0.0,meteohub,2013-11-15 23:15:00,
2013-11-15 18:20:00,77.4,68.4,30.03,ENE,74,9.0,14.0,74,0.00,,,0.00,0.0,meteohub,2013-11-15 23:20:00,
2013-11-15 18:25:00,77.4,68.4,30.03,ENE,74,8.0,15.0,74,0.00,,,0.00,0.0,meteohub,2013-11-15 23:25:00,
2013-11-15 18:30:00,77.2,68.2,30.02,NE,47,7.0,15.0,74,0.00,,,0.00,0.0,meteohub,2013-11-15 23:30:00,
2013-11-15 18:35:00,77.4,68.4,30.03,East,90,6.0,14.0,74,0.00,,,0.00,0.0,meteohub,2013-11-15 23:35:00,
2013-11-15 18:41:00,77.4,68.4,30.03,East,82,5.0,15.0,74,0.00,,,0.00,0.0,meteohub,2013-11-15 23:41:00,
2013-11-15 18:46:00,77.4,68.4,30.03,ENE,63,5.0,15.0,74,0.00,,,0.00,0.0,meteohub,2013-11-15 23:46:00,
2013-11-15 18:51:00,77.4,68.9,30.03,ENE,65,10.0,14.0,75,0.00,,,0.00,0.0,meteohub,2013-11-15 23:51:00,
2013-11-15 18:56:00,77.4,68.9,30.03,ENE,67,4.0,14.0,75,0.00,,,0.00,0.0,meteohub,2013-11-15 23:56:00,
2013-11-15 19:01:00,77.4,68.9,30.04,ESE,107,2.0,14.0,75,0.00,,,0.00,0.0,meteohub,2013-11-16 00:01:00,
2013-11-15 19:06:00,77.4,68.9,30.04,East,86,3.0,13.0,75,0.00,,,0.00,0.0,meteohub,2013-11-16 00:06:00,
2013-11-15 19:11:00,77.4,68.9,30.04,NE,55,4.0,12.0,75,0.00,,,0.00,0.0,meteohub,2013-11-16 00:11:00,
2013-11-15 19:16:00,77.4,68.9,30.04,ENE,76,5.0,12.0,75,0.00,,,0.00,0.0,meteohub,2013-11-16 00:16:00,
2013-11-15 19:21:00,77.4,68.9,30.04,East,100,5.0,9.0,75,0.00,,,0.00,0.0,meteohub,2013-11-16 00:21:00,
2013-11-15 19:26:00,77.4,68.9,30.04,ENE,59,7.0,12.0,75,0.00,,,0.00,0.0,meteohub,2013-11-16 00:26:00,
2013-11-15 19:31:00,77.4,68.4,30.05,East,97,6.0,12.0,74,0.00,,,0.00,0.0,meteohub,2013-11-16 00:31:00,
2013-11-15 19:36:00,77.4,68.4,30.05,ENE,67,7.0,12.0,74,0.00,,,0.00,0.0,meteohub,2013-11-16 00:36:00,
2013-11-15 19:41:00,77.4,68.4,30.05,ENE,70,3.0,11.0,74,0.00,,,0.00,0.0,meteohub,2013-11-16 00:41:00,
2013-11-15 19:46:00,77.4,68.4,30.05,ENE,73,3.0,11.0,74,0.00,,,0.00,0.0,meteohub,2013-11-16 00:46:00,
2013-11-15 19:51:00,77.4,68.4,30.05,East,86,2.0,11.0,74,0.00,,,0.00,0.0,meteohub,2013-11-16 00:51:00,
2013-11-15 19:56:00,77.4,68.4,30.06,ENE,71,4.0,11.0,74,0.00,,,0.00,0.0,meteohub,2013-11-16 00:56:00,
2013-11-15 20:01:00,77.4,68.4,30.06,ENE,71,7.0,9.0,74,0.00,,,0.00,0.0,meteohub,2013-11-16 01:01:00,
2013-11-15 20:06:00,77.4,68.4,30.06,ENE,76,8.0,11.0,74,0.00,,,0.00,0.0,meteohub,2013-11-16 01:06:00,
2013-11-15 20:11:00,77.4,68.4,30.06,ENE,70,3.0,11.0,74,0.00,,,0.00,0.0,meteohub,2013-11-16 01:11:00,
2013-11-15 20:16:00,77.2,68.2,30.06,ENE,71,7.0,11.0,74,0.00,,,0.00,0.0,meteohub,2013-11-16 01:16:00,
2013-11-15 20:21:00,77.2,68.2,30.06,ENE,78,3.0,10.0,74,0.00,,,0.00,0.0,meteohub,2013-11-16 01:21:00,
2013-11-15 20:26:00,77.2,68.2,30.06,ENE,68,4.0,12.0,74,0.00,,,0.00,0.0,meteohub,2013-11-16 01:26:00,
2013-11-15 20:31:00,77.2,68.2,30.06,ENE,76,5.0,12.0,74,0.00,,,0.00,0.0,meteohub,2013-11-16 01:31:00,
2013-11-15 20:36:00,77.2,68.2,30.06,East,82,6.0,13.0,74,0.00,,,0.00,0.0,meteohub,2013-11-16 01:36:00,
2013-11-15 20:41:00,77.2,68.2,30.06,ENE,71,3.0,13.0,74,0.00,,,0.00,0.0,meteohub,2013-11-16 01:41:00,
2013-11-15 20:46:00,77.2,68.2,30.06,ENE,69,4.0,13.0,74,0.00,,,0.00,0.0,meteohub,2013-11-16 01:46:00,
2013-11-15 20:51:00,77.2,68.2,30.06,East,79,5.0,11.0,74,0.00,,,0.00,0.0,meteohub,2013-11-16 01:51:00,
2013-11-15 20:56:00,77.2,68.2,30.06,East,86,3.0,11.0,74,0.00,,,0.00,0.0,meteohub,2013-11-16 01:56:00,
2013-11-15 21:01:00,77.2,68.2,30.06,ENE,76,4.0,9.0,74,0.00,,,0.00,0.0,meteohub,2013-11-16 02:01:00,
2013-11-15 21:06:00,77.2,68.2,30.06,ENE,72,4.0,10.0,74,0.00,,,0.00,0.0,meteohub,2013-11-16 02:06:00,
2013-11-15 21:11:00,77.4,68.4,30.06,East,98,6.0,10.0,74,0.00,,,0.00,0.0,meteohub,2013-11-16 02:11:00,
2013-11-15 21:16:00,77.4,68.4,30.06,ENE,74,4.0,12.0,74,0.00,,,0.00,0.0,meteohub,2013-11-16 02:16:00,
2013-11-15 21:22:00,77.4,68.4,30.06,ESE,123,4.0,12.0,74,0.00,,,0.00,0.0,meteohub,2013-11-16 02:22:00,
2013-11-15 21:27:00,77.4,68.0,30.06,East,79,9.0,11.0,73,0.00,,,0.00,0.0,meteohub,2013-11-16 02:27:00,
2013-11-15 21:32:00,77.4,68.0,30.06,East,82,3.0,10.0,73,0.00,,,0.00,0.0,meteohub,2013-11-16 02:32:00,
2013-11-15 21:37:00,77.4,68.4,30.06,ENE,74,4.0,10.0,74,0.00,,,0.00,0.0,meteohub,2013-11-16 02:37:00,
2013-11-15 21:42:00,77.4,68.4,30.06,East,85,6.0,10.0,74,0.00,,,0.00,0.0,meteohub,2013-11-16 02:42:00,
2013-11-15 21:47:00,77.5,68.5,30.06,East,92,3.0,10.0,74,0.00,,,0.00,0.0,meteohub,2013-11-16 02:47:00,
2013-11-15 21:52:00,77.5,68.9,30.06,ENE,78,11.0,11.0,75,0.00,,,0.00,0.0,meteohub,2013-11-16 02:52:00,
2013-11-15 21:57:00,77.5,68.9,30.06,East,86,7.0,14.0,75,0.00,,,0.00,0.0,meteohub,2013-11-16 02:57:00,
2013-11-15 22:02:00,77.5,68.9,30.06,ENE,67,4.0,14.0,75,0.00,,,0.00,0.0,meteohub,2013-11-16 03:02:00,
2013-11-15 22:08:00,77.5,68.9,30.06,East,94,10.0,14.0,75,0.00,,,0.00,0.0,meteohub,2013-11-16 03:08:00,
2013-11-15 22:13:00,77.5,68.9,30.06,East,88,2.0,12.0,75,0.00,,,0.00,0.0,meteohub,2013-11-16 03:13:00,
2013-11-15 22:18:00,77.5,68.9,30.06,East,82,2.0,16.0,75,0.00,,,0.00,0.0,meteohub,2013-11-16 03:18:00,
2013-11-15 22:23:00,77.5,68.9,30.06,ENE,65,8.0,16.0,75,0.00,,,0.00,0.0,meteohub,2013-11-16 03:23:00,
2013-11-15 22:28:00,77.5,68.9,30.06,East,97,8.0,10.0,75,0.00,,,0.00,0.0,meteohub,2013-11-16 03:28:00,
2013-11-15 22:33:00,77.5,68.9,30.06,ENE,75,7.0,10.0,75,0.00,,,0.00,0.0,meteohub,2013-11-16 03:33:00,
2013-11-15 22:38:00,77.7,69.1,30.06,East,98,5.0,10.0,75,0.00,,,0.00,0.0,meteohub,2013-11-16 03:38:00,
2013-11-15 22:43:00,77.7,68.7,30.06,ENE,69,11.0,11.0,74,0.00,,,0.00,0.0,meteohub,2013-11-16 03:43:00,
2013-11-15 22:48:00,77.7,68.7,30.06,East,92,2.0,12.0,74,0.00,,,0.00,0.0,meteohub,2013-11-16 03:48:00,
2013-11-15 22:53:00,77.9,68.9,30.06,East,101,3.0,12.0,74,0.00,,,0.00,0.0,meteohub,2013-11-16 03:53:00,
2013-11-15 22:58:00,77.7,68.4,30.06,East,101,7.0,12.0,73,0.00,,,0.00,0.0,meteohub,2013-11-16 03:58:00,
2013-11-15 23:04:00,77.9,67.8,30.05,East,92,8.0,15.0,71,0.00,,,0.00,0.0,meteohub,2013-11-16 04:04:00,
2013-11-15 23:09:00,78.1,67.5,30.05,East,82,10.0,15.0,70,0.00,,,0.00,0.0,meteohub,2013-11-16 04:09:00,
2013-11-15 23:14:00,78.3,68.0,30.06,East,85,9.0,15.0,71,0.00,,,0.00,0.0,meteohub,2013-11-16 04:14:00,
2013-11-15 23:19:00,78.4,68.2,30.06,ESE,103,5.0,16.0,71,0.00,,,0.00,0.0,meteohub,2013-11-16 04:19:00,
2013-11-15 23:24:00,78.3,68.0,30.06,East,98,6.0,16.0,71,0.00,,,0.00,0.0,meteohub,2013-11-16 04:24:00,
2013-11-15 23:29:00,78.3,67.6,30.06,East,83,10.0,16.0,70,0.00,,,0.00,0.0,meteohub,2013-11-16 04:29:00,
2013-11-15 23:34:00,78.3,67.6,30.06,ESE,122,7.0,11.0,70,0.00,,,0.00,0.0,meteohub,2013-11-16 04:34:00,
2013-11-15 23:39:00,78.3,67.6,30.06,ESE,103,5.0,15.0,70,0.00,,,0.00,0.0,meteohub,2013-11-16 04:39:00,
2013-11-15 23:44:00,78.3,67.6,30.06,East,92,9.0,15.0,70,0.00,,,0.00,0.0,meteohub,2013-11-16 04:44:00,
2013-11-15 23:49:00,78.3,67.6,30.06,East,90,7.0,11.0,70,0.00,,,0.00,0.0,meteohub,2013-11-16 04:49:00,
2013-11-15 23:54:00,78.3,67.6,30.06,ESE,102,8.0,14.0,70,0.00,,,0.00,0.0,meteohub,2013-11-16 04:54:00,
2013-11-15 23:59:00,78.3,67.6,30.05,ESE,107,3.0,14.0,70,0.00,,,0.00,0.0,meteohub,2013-11-16 04:59:00,